SL-16 DEB, 27007

Orbit data source: Space-Track

SL-16 DEB, 27007 is space debris in SSO originally from a launch on Mon, 10 Dec 2001 UTC launched from the Tyuratam Missile And Space Complex (TTMTR). Debris objects in space refer to the collection of defunct objects orbiting the Earth. Examples of debris include non-operational satellites, rocket bodies, and fragments generated from explosions, collisions, or faulty payload assembly.

Loading next visibility...
Identifier
27007, 2001-056G
Orbit
SSO
Country
Flag of CISCIS
Related business
Manufacturer
NII EM
Mission
Spacecraft
Bus & Motor
AR, Unknown motor
Mass
344 kg wet, 344 kg dry
Launch date (UTC)
2001-12-10 (24 years ago)
Launch vehicle
Unknown
Launch site
Tyuratam Missile And Space Complex (TTMTR)
Object type
Payload
Rocket body
Debris
Shape & HBR
Box, 1.9 m
Radar Cross Section
11.505 m², Medium (>0.1 m² and < 1m²)

Expand to show TLE details & history
Last TLE update: 10 hours ago

TLE from 10 hours ago
0 SL-16 DEB
1 27007U 01056G   26150.41728690  .00000892  00000-0  90779-3 0  9993
2 27007  99.4998 305.1637 0009867   2.6713 357.4490 13.79648172226178
Epoch: 2026-05-30T10:00Z
TLE epoch observation values (Epoch: 2026-05-30T10:00:53.588Z)
Latitude
0.00004°
Longitude
-92.9932°
Altitude
960.728 km
Speed
7.375 km/s
True Right ascension
20h 20m 39s
True Declination
0° 00' 00"
Sunlit
Object was in partial shadow at epoch
Visualization orbit readout
Latitude
Unknown
Longitude
Unknown
Altitude
Unknown
Speed
Unknown
Apparent Right ascension
Unknown
Apparent Declination
Unknown
Sunlit
N/A
Visualization observer readout
Local Sidereal Time
05:27:10
Azimuth
Unknown
Elevation
Unknown
Doppler factor
Unknown
Orbital elements
Apogee altitude
969.629 km
Perigee altitude
955.144 km
Semi-major axis
7,340.523 km
Eccentricity
0.00099
Inclination
99.4998°
RAAN
305.1637°
Arg. of periapsis
2.6713°
True anomaly
357.44396°
Mean anomaly
357.449°
Eccentric anomaly
357.44648°
Mean motion
3.45106 °/min
Orbital period
104.32 mins
BSTAR
0.00090779
Loading maneuver chart data...
Computing Atmospheric mass density...
Loading historical data...
Loading historical data...
Loading historical data...
Loading historical data...
Loading historical data...
Loading historical data...
Loading historical data...

Documentation

Showing up to 5 results
|